This is the latest recevied weather packets stored in our database for station/object W9KHP-1. If no packets are shown the sender has not sent any weather packets the latest 10 day(s).
| Time | Temp. | Humidity | Pressure | Rain* | Wind** | Luminosity | Snow |
|---|---|---|---|---|---|---|---|
| 1778039609 | 10° C | 99% | 1010.8 hPa | 3.05 mm | - | 0 W/m² | - |
| 1778039306 | 10° C | 99% | 1010.8 hPa | 0 mm | - | 0 W/m² | - |
| 1778039003 | 10° C | 99% | 1010.2 hPa | 0 mm | - | 0 W/m² | - |
| 1778038700 | 10° C | 99% | 1009.9 hPa | 0 mm | - | 0 W/m² | - |
| 1778038397 | 10° C | 99% | 1009.8 hPa | 0 mm | - | 0 W/m² | - |
| 1778038094 | 10° C | 99% | 1009.9 hPa | 0 mm | - | 0 W/m² | - |
| 1778037791 | 10° C | 99% | 1009.8 hPa | 1.27 mm | - | 0 W/m² | - |
| 1778037487 | 10° C | 99% | 1010 hPa | 0 mm | - | 0 W/m² | - |
| 1778037185 | 10° C | 99% | 1009.9 hPa | 0 mm | - | 0 W/m² | - |
| 1778036882 | 10.56° C | 99% | 1009.8 hPa | 1.78 mm | - | 0 W/m² | - |
| 1778036580 | 10.56° C | 99% | 1010 hPa | 3.56 mm | - | 0 W/m² | - |
| 1778036277 | 11.11° C | 99% | 1009.8 hPa | 1.78 mm | - | 0 W/m² | - |
| 1778035973 | 10.56° C | 99% | 1010 hPa | 1.27 mm | - | 0 W/m² | - |
| 1778035670 | 11.11° C | 99% | 1009.9 hPa | 1.27 mm | - | 0 W/m² | - |
| 1778035367 | 11.11° C | 99% | 1009.7 hPa | 1.78 mm | - | 0 W/m² | - |
| 1778035063 | 11.11° C | 99% | 1009.6 hPa | 1.78 mm | - | 0 W/m² | - |
| 1778034760 | 11.11° C | 99% | 1009.3 hPa | 1.27 mm | - | 0 W/m² | - |
| 1778034457 | 11.11° C | 99% | 1009.2 hPa | 1.27 mm | - | 0 W/m² | - |
| 1778034155 | 11.11° C | 99% | 1009.6 hPa | 0 mm | - | 0 W/m² | - |
| 1778033853 | 11.11° C | 99% | 1009.1 hPa | 0 mm | - | 0 W/m² | - |
| 1778033549 | 11.11° C | 99% | 1009.4 hPa | 0 mm | - | 0 W/m² | - |
| 1778033246 | 11.11° C | 99% | 1009.4 hPa | 0 mm | - | 0 W/m² | - |
| 1778032944 | 11.11° C | 99% | 1009.1 hPa | 0 mm | - | 0 W/m² | - |
| 1778032641 | 11.11° C | 99% | 1008.7 hPa | 1.78 mm | - | 0 W/m² | - |
| 1778032339 | 11.11° C | 99% | 1008.2 hPa | 6.1 mm | - | 0 W/m² | - |
* Rain latest hour (hover to see other rain measurements)
** Current wind speed in m/s (hover to see current wind gust speed)